Погода в Кызыле

Погода в Кызыле : погода сейчас, прогноз погоды и архив. Всё, что Вы хотите узнать о погоде в Кызыле!

Хотите узнать прогноз погоды в Кызыле? Тогда Вам сюда: Погода в Кызыле

Поиск расширенной информации на нашем сайте:

Другие новости

Новости СМИ2

Главная страница сайта

Новости сайта

03.07.2017

Напоминаем, что на нашем специализированном сайте Метеоцентр.Азия вы можете получить высокодетализированные автоматические прогнозы погоды по пунктам России, СНГ и мира в авиационном формате (включающие направление и скорость ветра, видимость, явления погоды, количество и форму облачности, нижнюю и верхнюю границу облачности).


Погода в Кызыле - сегодня

Время (UTC), дата Ветер
(°,м/с) 
Видим.   Явления Облачность Т
(°С)
Тd
(°С)
f(%) Тe
(°С)
Pmin
(гПа)
dP
(гПа)
Po
(мм)
O2
(г/м3)
Тmin Tmax R s Состояние
почвы
03 20.07.17 360 (С) 20000 м    9/8 1000 м кучево-дожд., средняя 
[Cb cap|Ac trans]
+19.1 +11.1 60 +25  1008.9  703  263           
06 20.07.17 020 (С) 20000 м  гроза, ливневой дождь  9/9 1000 м кучево-дожд., средняя 
[Cb cap|Ac trans]
+17.7 +13.7 77 +27  1009.8  0.6  704  263           
09 20.07.17 230 (ЮЗ) 20000 м  {ливн. осадки}  9/5 1000 м кучево-дожд., средняя, верхняя 
[Cb cap|Ac trans|Ci sp]
+23.1 +9.5 42 +25  1008.3  -0.3  704  260           
12 20.07.17 020 (С) 20000 м  {ливн. осадки}  8/4 1000 м кучево-дожд., средняя, верхняя 
[Cb cap|Ac trans|Ci sp]
+20.9 +8.1 44 +21  1009.7  0.8  704  262    +23.5     
15 20.07.17 080 (В) 10 км    1/1 1000 м 
[Sc]
+15.6 +10.1 70 +20  1012.7  1.6  705  267           
18 20.07.17 030 (СВ) 10 км    ясно 
+11.6 +9.4 86 +15  1014.3  0.7  706  271           
21 20.07.17 060 (СВ) 20000 м    ясно 
+10.8 +9.4 91 +14  1015.4  0.8  706  272           
00 21.07.17 080 (В) 20000 м    1/1 1000 м 
[Sc]
+12.5 +9.1 80 +15  1016.1  1.1  707  271  +10.3        влажная 
03 21.07.17 110 (В) 20000 м    1/1 1000 м 
[Cu hum]
+18.7 +10.1 57 +22  1014.6  0.1  707  265           
06 21.07.17 040 (СВ) 20000 м    3/3 1000 м 
[Cu med, cong]
+24.2 +7.5 34 +24  1011.1  -2.1  706  260           
09 21.07.17 310 (СЗ) 20000 м    9/4 1000 м кучево-дожд., средняя, верхняя 
[Cb cap|Ac trans|Ci sp]
+26.4 +7.8 31 +26  1008.7  -1.7  704  257           
12 21.07.17 350 (С) 20000 м    9/4 1000 м кучево-дожд., средняя, верхняя 
[Cb cap|Ac trans|Ci sp]
+24.8 +9.5 38 +27  1009.3  0.2  705  259    +27       
15 21.07.17 210 (ЮЗ) 10 км    6/3 1000 м верхняя 
[Sc|Ci fib]
+20.8 +9.7 49 +23  1010.6  0.4  705  262           
18 21.07.17 тихо ()   10 км    4/0 верхняя 
[Ci fib]
+17 +9.6 62 +19  1011.9  0.3  705  266           
21 21.07.17 тихо ()   10 км    8/4 1000 м верхняя 
[Sc|Ci fib]
+13.8 +9.7 76 +16  1013.4  0.6  706  269           
00 22.07.17 350 (С) 20000 м    4/3 1000 м верхняя 
[Sc|Ci fib]
+15.8 +9 64 +18  1013.5  0.6  706  267  +13.4        сухая 
03 22.07.17 140 (ЮВ) 20000 м    4/4 1000 м 
[Sc]
+21.6 +10.3 49 +24  1011.8  -0.2  706  262           
06 22.07.17 340 (С) 20000 м    6/3 1000 м средняя 
[Sc|Ac trans]
+26.2 +10.1 36 +29  1009.4  -1.2  705  257           
09 22.07.17 320 (СЗ) 20000 м    8/3 1000 м кучево-дожд., средняя, верхняя 
[Cb cap|Ac trans|Ci fib]
+28.7 +9.1 29 +30  1007.4  -1.4  704  255           
12 22.07.17 320 (СЗ) 2{11}  20000 м  {гроза}  8/4 1000 м кучево-дожд., средняя, верхняя 
[Cb cap|Ac trans|Ci fib]
+27.5 +6.2 26 +28  1006.9  -0.8  703  256    +29.1       
15 22.07.17 350 (С) 10 км    8/4 1000 м кучево-дожд., средняя, верхняя 
[Cb cap|Ac trans|Ci fib]
+22.9 +9 41 +24  1008.1  0.2  704  260           
18 22.07.17 060 (СВ) 10 км    3/3 1000 м 
[Sc]
+18.8 +8.9 53 +21  1009.9  0.7  704  264           
21 22.07.17 тихо ()   10 км    9/5 1000 м кучево-дожд., средняя, верхняя 
[Cb cap|Ac trans|Ci sp]
+15.5 +9.3 67 +17  1011.4  0.7  705  267           
00 23.07.17 100 (В) 20000 м  в посл. час ливневой дождь  9/8 1000 м кучево-дожд., средняя, верхняя 
[Cb cap|Ac trans|Ci sp]
+15.9 +10.2 69 +20  1012.1  0.7  705  267  +15    0.0    влажная 
03 23.07.17 090 (В) 20000 м    9/6 1000 м кучево-дожд., средняя, верхняя 
[Cb cap|Ac trans|Ci fib]
+21.2 +10 49 +24  1010  -0.7  705  262           
Время (UTC), дата Ветер
(°,м/с) 
Видим.   Явления Облачность Т
(°С)
Тd
(°С)
f(%) Тe
(°С)
Pmin
(гПа)
dP
(гПа)
Po
(мм)
O2
(г/м3)
Тmin Tmax R s Состояние
почвы

Для получения пояснительной информации подведите курсор к названию столбца.

ПОГОДА в Кызыле - архив

Всё, что Вы хотите узнать о погоде в Кызыле - удобно и подробно!

Выберите нужную дату (начиная с 1 января 2015* года) и нажмите кнопку "Найти".
Будут отображены архивные сводки погоды по пункту Кызыл, начиная с указанной даты.


Отображать данные в формате CSV (для использования в таблицах Excel)


Внимание! Наш архив погоды предназначен исключительно для личного некоммерческого использования в познавательных целях. Если Вам необходимы официальные справки о состоянии погоды (для производственных, юридических, коммерческих и т.п. целей), обращайтесь в органы Росгидромета.

*Примечание: данная дата относится к архиву по метеостанциям СССР (Россия, СНГ, Балтия).
Архив по метеостанциям Зарубежной Европы и Азии (кроме Китая) хранится 10 дней, по другим регионам земного шара (Китай, Африка, Америка, Австралия, Океания) - 1 день.

Кызыл - район местоположения метеостанции


Название, широта, долгота, высота метеостанции:
Кызыл 51.7°ш. 94.5°д. 628 м над ур. моря [Российская Федерация]

Дополнительная информация

В oтличие oт бoльшинства пoгoдных сайтoв мы публикуем пoдрoбную метеoинфoрмацию в детальнoм прoфессиoнальнoм фoрмате.

Характеристики температуры и влажнoсти вoздуха измеряются на высoте 2 м в тени вдали oт зданий и деревьев.
Скoрoсть ветра измеряется на высoте 10 м (на урoвне рoста челoвека скoрoсть ветра ниже в 1.5-2 раза). Если метеoстанция нахoдится в гoрoде или в лесу, тo скoрoсть ветра занижена на 2-4 м/с пo сравнению с oткрытым местoм. Скoрoсть ветра над акватoриями крупных рек и oзёр, а также на вершинах хoлмoв на 2-5 м/с выше, чем в oбычных услoвиях.
Атмoсфернoе давление в разных тoчках местнoсти мoжет значительнo oтличаться oт давления на метеoстанции, в зависимoсти oт услoвий рельефа (при пoдъёме на 10 м давление пoнижается примернo на 1 мм рт.ст.).